,,PA_Meas_PMT16A,,PR_Meas_QMR101_102,,RH_Meas_QMH101,,SR_Meas_QMS101,,TA_Meas_QMH101,,GenWind,,GenWind,
time,status,PA,status,PR,status,RH,status,SR,status,TA,status,DirAvg,status,SpdAvg,
2012-04-21, 00:00:04,VALID,919.042,VALID,0,VALID,95.834,VALID,0,VALID,20.4423,VALID,21,VALID,1.32031,
2012-04-21, 00:01:04,VALID,919.039,VALID,0,VALID,95.7501,VALID,0,VALID,20.4813,VALID,351,VALID,1.26367,
2012-04-21, 00:02:04,VALID,919.04,VALID,0,VALID,95.6434,VALID,0,VALID,20.4813,VALID,30,VALID,1.37891,
2012-04-21, 00:03:04,VALID,919.02,VALID,0,VALID,95.5595,VALID,0,VALID,20.5009,VALID,2,VALID,1.22305,
2012-04-21, 00:04:04,VALID,918.971,VALID,0,VALID,95.4909,VALID,0,VALID,20.5009,VALID,18,VALID,0.802344,
2012-04-21, 00:05:04,VALID,918.946,VALID,0,VALID,95.4299,VALID,0,VALID,20.5009,VALID,18,VALID,0.855469,
2012-04-21, 00:06:04,VALID,918.982,VALID,0,VALID,95.3613,VALID,0,VALID,20.5009,VALID,18,VALID,0.961719,
2012-04-21, 00:07:04,VALID,918.932,VALID,0,VALID,95.2546,VALID,0,VALID,20.4813,VALID,3,VALID,1.13086,
2012-04-21, 00:08:04,VALID,918.916,VALID,0,VALID,95.2088,VALID,0,VALID,20.4813,VALID,3,VALID,0.593359,
2012-04-21, 00:09:04,VALID,918.885,VALID,0,VALID,95.186,VALID,0,VALID,20.4603,VALID,3,VALID,1.01094,
2012-04-21, 00:10:04,VALID,918.899,VALID,0,VALID,95.1097,VALID,0,VALID,20.4813,VALID,3,VALID,1.09414,
2012-04-21, 00:11:04,VALID,918.895,VALID,0,VALID,95.1021,VALID,0,VALID,20.5024,VALID,3,VALID,1.23477,
2012-04-21, 00:12:04,VALID,918.886,VALID,0,VALID,95.0488,VALID,0,VALID,20.4618,VALID,3,VALID,1.05117,
2012-04-21, 00:13:04,VALID,918.886,VALID,0,VALID,95.0716,VALID,0,VALID,20.4618,VALID,3,VALID,0.911328,
2012-04-21, 00:14:04,VALID,918.868,VALID,0,VALID,95.0869,VALID,0,VALID,20.4423,VALID,3,VALID,0.936719,
2012-04-21, 00:15:04,VALID,918.853,VALID,0,VALID,95.0869,VALID,0,VALID,20.4634,VALID,3,VALID,0.808984,
2012-04-21, 00:16:04,VALID,918.866,VALID,0,VALID,95.1021,VALID,0,VALID,20.4439,VALID,20,VALID,1.33164,
2012-04-21, 00:17:04,VALID,918.859,VALID,0,VALID,95.1402,VALID,0,VALID,20.4033,VALID,9,VALID,0.815625,
2012-04-21, 00:18:04,VALID,918.877,VALID,0,VALID,95.2088,VALID,0,VALID,20.3838,VALID,2,VALID,0.489453,
2012-04-21, 00:19:04,VALID,918.859,VALID,0,VALID,95.2546,VALID,0,VALID,20.3854,VALID,2,VALID,0.503516,
2012-04-21, 00:20:04,VALID,918.848,VALID,0,VALID,95.2927,VALID,0,VALID,20.3838,VALID,2,VALID,0.785156,
2012-04-21, 00:21:04,VALID,918.814,VALID,0,VALID,95.3156,VALID,0,VALID,20.3643,VALID,2,VALID,0.822266,
2012-04-21, 00:22:04,VALID,918.8,VALID,0,VALID,95.3384,VALID,0,VALID,20.3448,VALID,2,VALID,0.745703,
2012-04-21, 00:23:04,VALID,918.819,VALID,0,VALID,95.3689,VALID,0,VALID,20.3253,VALID,2,VALID,0.45,
2012-04-21, 00:24:04,VALID,918.809,VALID,0,VALID,95.3994,VALID,0,VALID,20.3269,VALID,2,VALID,0.623438,
2012-04-21, 00:25:04,VALID,918.806,VALID,0,VALID,95.4299,VALID,0,VALID,20.3058,VALID,12,VALID,0.982031,
2012-04-21, 00:26:04,VALID,918.791,VALID,0,VALID,95.4375,VALID,0,VALID,20.2863,VALID,12,VALID,0.853125,
2012-04-21, 00:27:04,VALID,918.809,VALID,0,VALID,95.4757,VALID,0,VALID,20.3058,VALID,12,VALID,0.914063,
2012-04-21, 00:28:04,VALID,918.799,VALID,0,VALID,95.4604,VALID,0,VALID,20.3074,VALID,358,VALID,0.988281,
2012-04-21, 00:29:04,VALID,918.789,VALID,0,VALID,95.4985,VALID,0,VALID,20.2863,VALID,349,VALID,0.684766,
2012-04-21, 00:30:04,VALID,918.741,VALID,0,VALID,95.5367,VALID,0,VALID,20.3058,VALID,349,VALID,0.642578,
2012-04-21, 00:31:04,VALID,918.748,VALID,0,VALID,95.5595,VALID,0,VALID,20.3058,VALID,349,VALID,0.798437,
2012-04-21, 00:32:04,VALID,918.685,VALID,0,VALID,95.5748,VALID,0,VALID,20.2848,VALID,349,VALID,0.802734,
2012-04-21, 00:33:04,VALID,918.69,VALID,0,VALID,95.5824,VALID,0,VALID,20.3269,VALID,349,VALID,0.452344,
2012-04-21, 00:34:04,VALID,918.684,VALID,0,VALID,95.6205,VALID,0,VALID,20.3074,VALID,349,VALID,0.299219,
2012-04-21, 00:35:05,VALID,918.673,VALID,0,VALID,95.6281,VALID,0,VALID,20.3253,VALID,349,VALID,0.485938,
2012-04-21, 00:36:05,VALID,918.709,VALID,0,VALID,95.5748,VALID,0,VALID,20.3253,VALID,349,VALID,0.648438,
2012-04-21, 00:37:05,VALID,918.735,VALID,0,VALID,95.5595,VALID,0,VALID,20.3269,VALID,349,VALID,0.759766,
2012-04-21, 00:38:05,VALID,918.68,VALID,0,VALID,95.5367,VALID,0,VALID,20.3058,VALID,349,VALID,0.980078,
2012-04-21, 00:39:05,VALID,918.663,VALID,0,VALID,95.5443,VALID,0,VALID,20.3253,VALID,10,VALID,1.11836,
2012-04-21, 00:40:05,VALID,918.665,VALID,0,VALID,95.4985,VALID,0,VALID,20.3058,VALID,10,VALID,1.12969,
2012-04-21, 00:41:05,VALID,918.659,VALID,0,VALID,95.5214,VALID,0,VALID,20.3058,VALID,338,VALID,1.13008,
2012-04-21, 00:42:05,VALID,918.591,VALID,0,VALID,95.529,VALID,0,VALID,20.2863,VALID,354,VALID,0.812891,
2012-04-21, 00:43:05,VALID,918.526,VALID,0,VALID,95.4909,VALID,0,VALID,20.2863,VALID,20,VALID,1.55508,
2012-04-21, 00:44:05,VALID,918.526,VALID,0,VALID,95.4604,VALID,0,VALID,20.2863,VALID,2,VALID,1.02383,
2012-04-21, 00:45:05,VALID,918.49,VALID,0,VALID,95.4452,VALID,0,VALID,20.2668,VALID,344,VALID,1.41602,
2012-04-21, 00:46:05,VALID,918.471,VALID,0,VALID,95.3994,VALID,0,VALID,20.2668,VALID,1,VALID,1.06602,
2012-04-21, 00:47:05,VALID,918.427,VALID,0,VALID,95.3689,VALID,0,VALID,20.2668,VALID,23,VALID,1.42813,
2012-04-21, 00:48:05,VALID,918.413,VALID,0,VALID,95.3003,VALID,0,VALID,20.2668,VALID,10,VALID,1.53359,
2012-04-21, 00:49:05,VALID,918.427,VALID,0,VALID,95.1936,VALID,0,VALID,20.2863,VALID,8,VALID,0.740234,
2012-04-21, 00:50:05,VALID,918.383,VALID,0,VALID,95.1097,VALID,0,VALID,20.3058,VALID,8,VALID,0.419531,
2012-04-21, 00:51:05,VALID,918.364,VALID,0,VALID,94.9954,VALID,0,VALID,20.3058,VALID,8,VALID,0.511328,
2012-04-21, 00:52:05,VALID,918.331,VALID,0,VALID,94.8734,VALID,0,VALID,20.2863,VALID,8,VALID,1.00547,
2012-04-21, 00:53:05,VALID,918.32,VALID,0,VALID,94.7819,VALID,0,VALID,20.2653,VALID,23,VALID,1.2582,
2012-04-21, 00:54:05,VALID,918.29,VALID,0,VALID,94.7133,VALID,0,VALID,20.2473,VALID,18,VALID,1.16094,
2012-04-21, 00:55:05,VALID,918.306,VALID,0,VALID,94.5913,VALID,0,VALID,20.2458,VALID,18,VALID,1.11289,
2012-04-21, 00:56:05,VALID,918.23,VALID,0,VALID,94.4922,VALID,0,VALID,20.2263,VALID,18,VALID,1.25859,
2012-04-21, 00:57:05,VALID,918.223,VALID,0,VALID,94.4008,VALID,0.107441,VALID,20.2458,VALID,27,VALID,1.33711,
2012-04-21, 00:58:05,VALID,918.199,VALID,0,VALID,94.3245,VALID,0.107441,VALID,20.2263,VALID,35,VALID,1.56406,
2012-04-21, 00:59:05,VALID,918.18,VALID,0,VALID,94.1873,VALID,0.107441,VALID,20.2263,VALID,32,VALID,1.21836,
2012-04-21, 01:00:05,VALID,918.188,VALID,0,VALID,94.2178,VALID,0.107441,VALID,20.2263,VALID,31,VALID,1.43828,
2012-04-21, 01:01:05,VALID,918.142,VALID,0,VALID,94.1339,VALID,0.107441,VALID,20.2068,VALID,17,VALID,1.87305,
2012-04-21, 01:02:05,VALID,918.144,VALID,0,VALID,94.0348,VALID,0,VALID,20.2458,VALID,29,VALID,1.6918,
2012-04-21, 01:03:05,VALID,918.107,VALID,0,VALID,93.9891,VALID,0.107441,VALID,20.2653,VALID,24,VALID,1.03594,
2012-04-21, 01:04:05,VALID,918.078,VALID,0,VALID,93.9357,VALID,0,VALID,20.2458,VALID,359,VALID,0.848828,
2012-04-21, 01:05:05,VALID,918.044,VALID,0,VALID,93.8824,VALID,0.107441,VALID,20.2458,VALID,16,VALID,1.25703,
2012-04-21, 01:06:05,VALID,918.028,VALID,0,VALID,93.8595,VALID,0.107441,VALID,20.2263,VALID,16,VALID,0.971875,
2012-04-21, 01:07:05,VALID,918.006,VALID,0,VALID,93.8519,VALID,0.107441,VALID,20.2068,VALID,16,VALID,0.696875,
2012-04-21, 01:08:05,VALID,918,VALID,0,VALID,93.8519,VALID,0.107441,VALID,20.1873,VALID,356,VALID,0.720703,
2012-04-21, 01:09:05,VALID,917.953,VALID,0,VALID,93.8519,VALID,0,VALID,20.2278,VALID,356,VALID,0.765234,
2012-04-21, 01:10:05,VALID,917.91,VALID,0,VALID,93.9052,VALID,0,VALID,20.2083,VALID,356,VALID,1.08086,
2012-04-21, 01:11:05,VALID,917.886,VALID,0,VALID,93.9205,VALID,0,VALID,20.2083,VALID,356,VALID,0.537891,
2012-04-21, 01:12:05,VALID,917.823,VALID,0,VALID,93.8976,VALID,0,VALID,20.2083,VALID,356,VALID,0.409375,
2012-04-21, 01:13:05,VALID,917.8,VALID,0,VALID,93.8824,VALID,0,VALID,20.1888,VALID,356,VALID,0.527734,
2012-04-21, 01:14:05,VALID,917.759,VALID,0,VALID,93.9205,VALID,0,VALID,20.1693,VALID,356,VALID,0.534766,
2012-04-21, 01:15:05,VALID,917.724,VALID,0,VALID,93.9281,VALID,0,VALID,20.1498,VALID,356,VALID,0.298047,
2012-04-21, 01:16:05,VALID,917.701,VALID,0,VALID,94.0577,VALID,0,VALID,20.1513,VALID,356,VALID,0.328125,
2012-04-21, 01:17:05,VALID,917.654,VALID,0,VALID,94.1034,VALID,0,VALID,20.1303,VALID,356,VALID,0.908203,
2012-04-21, 01:18:05,VALID,917.653,VALID,0,VALID,94.0501,VALID,0,VALID,20.1513,VALID,356,VALID,0.458594,
2012-04-21, 01:19:05,VALID,917.65,VALID,0,VALID,94.0272,VALID,0,VALID,20.1498,VALID,356,VALID,0.163672,
2012-04-21, 01:20:05,VALID,917.663,VALID,0,VALID,93.89,VALID,0,VALID,20.1708,VALID,356,VALID,0.452734,
2012-04-21, 01:21:05,VALID,917.616,VALID,0,VALID,93.8214,VALID,0,VALID,20.1303,VALID,356,VALID,0.373437,
2012-04-21, 01:22:05,VALID,917.649,VALID,0,VALID,93.7147,VALID,0,VALID,20.1498,VALID,356,VALID,0.410547,
2012-04-21, 01:23:05,VALID,917.616,VALID,0,VALID,93.6613,VALID,0,VALID,20.1303,VALID,356,VALID,0,
2012-04-21, 01:24:05,VALID,917.61,VALID,0,VALID,93.646,VALID,0,VALID,20.1303,VALID,356,VALID,0,
2012-04-21, 01:25:05,VALID,917.601,VALID,0,VALID,93.5241,VALID,0,VALID,20.1093,VALID,356,VALID,0,
2012-04-21, 01:26:05,VALID,917.565,VALID,0,VALID,93.4859,VALID,0,VALID,20.1093,VALID,356,VALID,0.223828,
2012-04-21, 01:27:05,VALID,917.544,VALID,0,VALID,93.4555,VALID,0.107441,VALID,20.1108,VALID,356,VALID,0,
2012-04-21, 01:28:05,VALID,917.505,VALID,0,VALID,93.4555,VALID,0,VALID,20.0703,VALID,356,VALID,0.251172,
2012-04-21, 01:29:05,VALID,917.476,VALID,0,VALID,93.4021,VALID,0,VALID,20.0508,VALID,356,VALID,0.275,
2012-04-21, 01:30:05,VALID,917.46,VALID,0,VALID,93.3868,VALID,0,VALID,20.0313,VALID,356,VALID,0,
2012-04-21, 01:31:05,VALID,917.434,VALID,0,VALID,93.3716,VALID,0,VALID,19.9923,VALID,356,VALID,0,
2012-04-21, 01:32:05,VALID,917.405,VALID,0,VALID,93.425,VALID,0,VALID,19.9743,VALID,356,VALID,0,
2012-04-21, 01:33:05,VALID,917.43,VALID,0,VALID,93.5012,VALID,0,VALID,19.9338,VALID,356,VALID,0,
2012-04-21, 01:34:05,VALID,917.399,VALID,0,VALID,93.6232,VALID,0.107441,VALID,19.9143,VALID,356,VALID,0,
2012-04-21, 01:35:05,VALID,917.405,VALID,0,VALID,93.7299,VALID,0.107441,VALID,19.9353,VALID,356,VALID,0.344141,
2012-04-21, 01:36:05,VALID,917.398,VALID,0,VALID,93.8443,VALID,0.107441,VALID,19.8948,VALID,356,VALID,0.489453,
2012-04-21, 01:37:05,VALID,917.404,VALID,0,VALID,93.707,VALID,0.107441,VALID,19.8948,VALID,356,VALID,0.735156,
2012-04-21, 01:38:05,VALID,917.424,VALID,0,VALID,93.6308,VALID,0.107441,VALID,19.8558,VALID,28,VALID,1.18164,
2012-04-21, 01:39:05,VALID,917.441,VALID,0,VALID,93.5851,VALID,0,VALID,19.8363,VALID,28,VALID,0.858203,
2012-04-21, 01:40:05,VALID,917.446,VALID,0,VALID,93.6155,VALID,0,VALID,19.8183,VALID,28,VALID,0.990234,
2012-04-21, 01:41:05,VALID,917.457,VALID,0,VALID,93.5546,VALID,0,VALID,19.8363,VALID,18,VALID,0.949219,
2012-04-21, 01:42:05,VALID,917.431,VALID,0,VALID,93.3716,VALID,0,VALID,19.8768,VALID,29,VALID,1.02188,
2012-04-21, 01:43:05,VALID,917.43,VALID,0,VALID,93.1734,VALID,0.107441,VALID,19.8753,VALID,25,VALID,0.844922,
2012-04-21, 01:44:05,VALID,917.391,VALID,0,VALID,93.0743,VALID,0,VALID,19.8753,VALID,16,VALID,0.871875,
2012-04-21, 01:45:05,VALID,917.375,VALID,0,VALID,93.12,VALID,0,VALID,19.9158,VALID,16,VALID,0.548047,
2012-04-21, 01:46:05,VALID,917.335,VALID,0,VALID,93.0895,VALID,0,VALID,19.9743,VALID,16,VALID,0.334766,
2012-04-21, 01:47:05,VALID,917.303,VALID,0,VALID,92.9447,VALID,0.107441,VALID,19.9923,VALID,16,VALID,0.472656,
2012-04-21, 01:48:05,VALID,917.293,VALID,0,VALID,92.6779,VALID,0,VALID,20.0313,VALID,16,VALID,0.0328125,
2012-04-21, 01:49:05,VALID,917.255,VALID,0,VALID,92.4568,VALID,0,VALID,20.0913,VALID,16,VALID,0,
2012-04-21, 01:50:05,VALID,917.282,VALID,0,VALID,92.3577,VALID,0,VALID,20.0898,VALID,16,VALID,0,
2012-04-21, 01:51:05,VALID,917.258,VALID,0,VALID,92.3577,VALID,0,VALID,20.0898,VALID,16,VALID,0,
2012-04-21, 01:52:05,VALID,917.258,VALID,0,VALID,92.3424,VALID,0,VALID,20.0898,VALID,16,VALID,0,
2012-04-21, 01:53:05,VALID,917.231,VALID,0,VALID,92.3043,VALID,0,VALID,20.0913,VALID,16,VALID,0.597266,
2012-04-21, 01:54:05,VALID,917.207,VALID,0,VALID,92.0985,VALID,0,VALID,20.0718,VALID,16,VALID,0.582812,
2012-04-21, 01:55:05,VALID,917.179,VALID,0,VALID,91.7631,VALID,0.107441,VALID,20.1093,VALID,16,VALID,0.274609,
2012-04-21, 01:56:05,VALID,917.164,VALID,0,VALID,91.3209,VALID,0,VALID,20.1498,VALID,16,VALID,0.771094,
2012-04-21, 01:57:05,VALID,917.118,VALID,0,VALID,91.0465,VALID,0,VALID,20.1888,VALID,16,VALID,0.387109,
2012-04-21, 01:58:05,VALID,917.099,VALID,0,VALID,91.0083,VALID,0.107441,VALID,20.1873,VALID,16,VALID,0.403516,
2012-04-21, 01:59:05,VALID,917.055,VALID,0,VALID,91.0541,VALID,0.107441,VALID,20.1888,VALID,16,VALID,0.7,
2012-04-21, 02:00:05,VALID,917.011,VALID,0,VALID,91.1074,VALID,0,VALID,20.1873,VALID,16,VALID,0.772656,
2012-04-21, 02:01:05,VALID,916.986,VALID,0,VALID,90.9321,VALID,0,VALID,20.1873,VALID,16,VALID,0.832031,
2012-04-21, 02:02:05,VALID,916.989,VALID,0,VALID,90.9397,VALID,0,VALID,20.2083,VALID,16,VALID,0.396875,
2012-04-21, 02:03:05,VALID,916.949,VALID,0,VALID,90.9855,VALID,0,VALID,20.1888,VALID,16,VALID,0.516797,
2012-04-21, 02:04:05,VALID,916.924,VALID,0,VALID,90.7949,VALID,0,VALID,20.0703,VALID,16,VALID,0.257813,
2012-04-21, 02:05:05,VALID,916.942,VALID,0,VALID,91.4276,VALID,0.107441,VALID,19.9728,VALID,16,VALID,0,
2012-04-21, 02:06:05,VALID,916.908,VALID,0,VALID,91.9994,VALID,0,VALID,19.8963,VALID,16,VALID,0.830469,
2012-04-21, 02:07:05,VALID,916.903,VALID,0,VALID,92.3806,VALID,0,VALID,19.7973,VALID,16,VALID,0.434766,
2012-04-21, 02:08:05,VALID,916.863,VALID,0,VALID,92.655,VALID,0.107441,VALID,19.7778,VALID,16,VALID,0,
2012-04-21, 02:09:05,VALID,916.87,VALID,0,VALID,92.7465,VALID,0,VALID,19.7583,VALID,16,VALID,0,
2012-04-21, 02:10:05,VALID,916.873,VALID,0,VALID,92.7236,VALID,0,VALID,19.7598,VALID,16,VALID,0.0402344,
2012-04-21, 02:11:05,VALID,916.849,VALID,0,VALID,92.8227,VALID,0,VALID,19.7193,VALID,16,VALID,0.175391,
2012-04-21, 02:12:05,VALID,916.845,VALID,0,VALID,92.9676,VALID,0.107441,VALID,19.7193,VALID,16,VALID,0.0773437,
2012-04-21, 02:13:05,VALID,916.847,VALID,0,VALID,92.9676,VALID,0,VALID,19.7208,VALID,16,VALID,0.00078125,
2012-04-21, 02:14:05,VALID,916.861,VALID,0,VALID,93.0057,VALID,0,VALID,19.6818,VALID,16,VALID,0.748438,
2012-04-21, 02:15:05,VALID,916.839,VALID,0,VALID,93.1353,VALID,0,VALID,19.6233,VALID,16,VALID,0.302344,
2012-04-21, 02:16:05,VALID,916.821,VALID,0,VALID,93.2801,VALID,0.107441,VALID,19.5828,VALID,16,VALID,0.35,
2012-04-21, 02:17:05,VALID,916.801,VALID,0,VALID,93.5088,VALID,0,VALID,19.6038,VALID,16,VALID,0.341797,
2012-04-21, 02:18:05,VALID,916.797,VALID,0,VALID,93.6842,VALID,0,VALID,19.5633,VALID,16,VALID,0.375781,
2012-04-21, 02:19:05,VALID,916.793,VALID,0,VALID,93.8214,VALID,0.107441,VALID,19.6023,VALID,16,VALID,0.214062,
2012-04-21, 02:20:05,VALID,916.784,VALID,0,VALID,94.0501,VALID,0,VALID,19.6218,VALID,16,VALID,0.490625,
2012-04-21, 02:21:05,VALID,916.747,VALID,0,VALID,94.0806,VALID,0,VALID,19.6623,VALID,16,VALID,0.0777344,
2012-04-21, 02:22:05,VALID,916.752,VALID,0,VALID,94.0348,VALID,0.107441,VALID,19.6413,VALID,16,VALID,0,
2012-04-21, 02:23:05,VALID,916.7,VALID,0,VALID,93.9738,VALID,0,VALID,19.6203,VALID,16,VALID,0.0609375,
2012-04-21, 02:24:05,VALID,916.696,VALID,0,VALID,94.2026,VALID,0.107441,VALID,19.6818,VALID,16,VALID,0.510938,
2012-04-21, 02:25:05,VALID,916.683,VALID,0,VALID,94.294,VALID,0,VALID,19.6608,VALID,16,VALID,0.398047,
2012-04-21, 02:26:05,VALID,916.67,VALID,0,VALID,94.2864,VALID,0,VALID,19.6608,VALID,16,VALID,0.315625,
2012-04-21, 02:27:05,VALID,916.656,VALID,0,VALID,94.4236,VALID,0,VALID,19.7208,VALID,16,VALID,0.801172,
2012-04-21, 02:28:05,VALID,916.664,VALID,0,VALID,94.5913,VALID,0,VALID,19.7193,VALID,16,VALID,0.482422,
2012-04-21, 02:29:05,VALID,916.64,VALID,0,VALID,94.5685,VALID,0,VALID,19.7013,VALID,16,VALID,0.387891,
2012-04-21, 02:30:05,VALID,916.627,VALID,0,VALID,94.5913,VALID,0,VALID,19.7013,VALID,16,VALID,0.510156,
2012-04-21, 02:31:05,VALID,916.652,VALID,0,VALID,94.6981,VALID,0,VALID,19.7013,VALID,16,VALID,0.891016,
2012-04-21, 02:32:05,VALID,916.6,VALID,0,VALID,94.82,VALID,0,VALID,19.6818,VALID,16,VALID,0.822656,
2012-04-21, 02:33:05,VALID,916.63,VALID,0,VALID,94.9344,VALID,0,VALID,19.6623,VALID,16,VALID,0.727734,
2012-04-21, 02:34:05,VALID,916.627,VALID,0,VALID,95.0106,VALID,0,VALID,19.6623,VALID,16,VALID,0.283594,
2012-04-21, 02:35:05,VALID,916.633,VALID,0,VALID,95.0716,VALID,0,VALID,19.6623,VALID,16,VALID,0.214062,
2012-04-21, 02:36:05,VALID,916.612,VALID,0,VALID,95.125,VALID,0,VALID,19.6428,VALID,16,VALID,0.366406,
2012-04-21, 02:37:05,VALID,916.597,VALID,0,VALID,95.125,VALID,0,VALID,19.6233,VALID,16,VALID,0,
2012-04-21, 02:38:05,VALID,916.595,VALID,0,VALID,95.0945,VALID,0,VALID,19.6038,VALID,16,VALID,0,
2012-04-21, 02:39:05,VALID,916.62,VALID,0,VALID,95.1174,VALID,0.107441,VALID,19.6038,VALID,16,VALID,0,
2012-04-21, 02:40:05,VALID,916.611,VALID,0,VALID,95.0869,VALID,0,VALID,19.5858,VALID,16,VALID,0,
2012-04-21, 02:41:05,VALID,916.602,VALID,0,VALID,95.0945,VALID,0,VALID,19.5858,VALID,16,VALID,0,
2012-04-21, 02:42:05,VALID,916.618,VALID,0,VALID,94.9496,VALID,0,VALID,19.5453,VALID,16,VALID,0,
2012-04-21, 02:43:05,VALID,916.609,VALID,0,VALID,94.9496,VALID,0,VALID,19.5273,VALID,16,VALID,0,
2012-04-21, 02:44:05,VALID,916.643,VALID,0,VALID,95.1021,VALID,0,VALID,19.5468,VALID,16,VALID,0,
2012-04-21, 02:45:05,VALID,916.604,VALID,0,VALID,94.9573,VALID,0,VALID,19.5273,VALID,16,VALID,0,
2012-04-21, 02:46:05,VALID,916.625,VALID,0,VALID,94.7286,VALID,0,VALID,19.4688,VALID,16,VALID,0,
2012-04-21, 02:47:05,VALID,916.617,VALID,0,VALID,94.7057,VALID,0,VALID,19.4298,VALID,16,VALID,0.237891,
2012-04-21, 02:48:05,VALID,916.601,VALID,0,VALID,94.8658,VALID,0,VALID,19.3908,VALID,16,VALID,0.321875,
2012-04-21, 02:49:05,VALID,916.614,VALID,0,VALID,94.9725,VALID,0,VALID,19.3713,VALID,16,VALID,0.442969,
2012-04-21, 02:50:05,VALID,916.593,VALID,0,VALID,94.9496,VALID,0,VALID,19.3323,VALID,16,VALID,0.508594,
2012-04-21, 02:51:05,VALID,916.594,VALID,0,VALID,95.0335,VALID,0,VALID,19.2738,VALID,16,VALID,0.537109,
2012-04-21, 02:52:05,VALID,916.573,VALID,0,VALID,95.1021,VALID,0,VALID,19.2139,VALID,16,VALID,0.454688,
2012-04-21, 02:53:05,VALID,916.548,VALID,0,VALID,95.3613,VALID,0,VALID,19.2153,VALID,16,VALID,0.428125,
2012-04-21, 02:54:05,VALID,916.541,VALID,0,VALID,95.5595,VALID,0,VALID,19.2543,VALID,16,VALID,0.391797,
2012-04-21, 02:55:05,VALID,916.564,VALID,0,VALID,95.6053,VALID,0,VALID,19.2528,VALID,16,VALID,0.412891,
2012-04-21, 02:56:05,VALID,916.558,VALID,0,VALID,95.6129,VALID,0,VALID,19.2514,VALID,16,VALID,0.327344,
2012-04-21, 02:57:05,VALID,916.558,VALID,0,VALID,95.6815,VALID,0,VALID,19.2918,VALID,16,VALID,0.442969,
2012-04-21, 02:58:05,VALID,916.554,VALID,0,VALID,95.7196,VALID,0.107441,VALID,19.3113,VALID,16,VALID,0.325391,
2012-04-21, 02:59:05,VALID,916.552,VALID,0,VALID,95.712,VALID,0,VALID,19.3113,VALID,16,VALID,0.388281,
2012-04-21, 03:00:05,VALID,916.56,VALID,0,VALID,95.7272,VALID,0,VALID,19.3099,VALID,16,VALID,0.25,
2012-04-21, 03:01:05,VALID,916.555,VALID,0,VALID,95.7654,VALID,0,VALID,19.3518,VALID,16,VALID,0.05625,
2012-04-21, 03:02:05,VALID,916.555,VALID,0,VALID,95.7806,VALID,0,VALID,19.3489,VALID,16,VALID,0.404687,
2012-04-21, 03:03:05,VALID,916.521,VALID,0,VALID,95.8645,VALID,0,VALID,19.4088,VALID,16,VALID,0.744141,
2012-04-21, 03:04:05,VALID,916.542,VALID,0,VALID,95.8873,VALID,0,VALID,19.4868,VALID,16,VALID,0.236719,
2012-04-21, 03:05:05,VALID,916.527,VALID,0,VALID,95.834,VALID,0.107441,VALID,19.5063,VALID,16,VALID,0,
2012-04-21, 03:06:05,VALID,916.505,VALID,0,VALID,95.7425,VALID,0,VALID,19.4868,VALID,16,VALID,0,
2012-04-21, 03:07:05,VALID,916.489,VALID,0,VALID,95.712,VALID,0.107441,VALID,19.4853,VALID,16,VALID,0,
2012-04-21, 03:08:05,VALID,916.48,VALID,0,VALID,95.6129,VALID,0.107441,VALID,19.5063,VALID,16,VALID,0,
2012-04-21, 03:09:05,VALID,916.48,VALID,0,VALID,95.5824,VALID,0,VALID,19.4658,VALID,16,VALID,0,
2012-04-21, 03:10:05,VALID,916.451,VALID,0,VALID,95.4757,VALID,0,VALID,19.4673,VALID,16,VALID,0.378906,
2012-04-21, 03:11:05,VALID,916.474,VALID,0,VALID,95.3918,VALID,0,VALID,19.4074,VALID,16,VALID,0.379687,
2012-04-21, 03:12:05,VALID,916.456,VALID,0,VALID,95.3766,VALID,0,VALID,19.4088,VALID,16,VALID,0.279687,
2012-04-21, 03:13:05,VALID,916.462,VALID,0,VALID,95.5062,VALID,0,VALID,19.3893,VALID,16,VALID,0.418359,
2012-04-21, 03:14:05,VALID,916.434,VALID,0,VALID,95.6357,VALID,0,VALID,19.4088,VALID,16,VALID,0.270703,
2012-04-21, 03:15:05,VALID,916.438,VALID,0,VALID,95.7272,VALID,0,VALID,19.4088,VALID,16,VALID,0.494531,
2012-04-21, 03:16:05,VALID,916.435,VALID,0,VALID,95.7958,VALID,0,VALID,19.4088,VALID,16,VALID,0.262891,
2012-04-21, 03:17:05,VALID,916.433,VALID,0,VALID,95.8645,VALID,0,VALID,19.4283,VALID,16,VALID,0,
2012-04-21, 03:18:05,VALID,916.379,VALID,0,VALID,95.9102,VALID,0,VALID,19.4283,VALID,16,VALID,0,
2012-04-21, 03:19:05,VALID,916.391,VALID,0,VALID,95.8645,VALID,0,VALID,19.4074,VALID,16,VALID,0,
2012-04-21, 03:20:05,VALID,916.34,VALID,0,VALID,95.8416,VALID,0,VALID,19.4283,VALID,16,VALID,0.0667969,
2012-04-21, 03:21:05,VALID,916.313,VALID,0,VALID,95.8416,VALID,0,VALID,19.4088,VALID,16,VALID,0.68125,
2012-04-21, 03:22:05,VALID,916.316,VALID,0,VALID,95.7806,VALID,0,VALID,19.3893,VALID,16,VALID,0.512891,
2012-04-21, 03:23:05,VALID,916.33,VALID,0,VALID,95.712,VALID,0,VALID,19.3503,VALID,16,VALID,0.164063,
2012-04-21, 03:24:05,VALID,916.309,VALID,0,VALID,95.7882,VALID,0,VALID,19.3503,VALID,16,VALID,0.519922,
2012-04-21, 03:25:05,VALID,916.302,VALID,0,VALID,95.9331,VALID,0,VALID,19.3893,VALID,16,VALID,0,
2012-04-21, 03:26:05,VALID,916.307,VALID,0,VALID,95.9712,VALID,0,VALID,19.4283,VALID,16,VALID,0.00117188,
2012-04-21, 03:27:05,VALID,916.317,VALID,0,VALID,95.9788,VALID,0,VALID,19.4673,VALID,16,VALID,0.271094,
2012-04-21, 03:28:05,VALID,916.317,VALID,0,VALID,95.9178,VALID,0,VALID,19.5063,VALID,16,VALID,0.447656,
2012-04-21, 03:29:05,VALID,916.321,VALID,0,VALID,95.9178,VALID,0,VALID,19.5258,VALID,16,VALID,0,
2012-04-21, 03:30:05,VALID,916.32,VALID,0,VALID,95.8721,VALID,0,VALID,19.5453,VALID,16,VALID,0,
2012-04-21, 03:31:04,VALID,916.303,VALID,0,VALID,95.8568,VALID,0,VALID,19.5663,VALID,16,VALID,0.157031,
2012-04-21, 03:32:04,VALID,916.267,VALID,0,VALID,95.8568,VALID,0,VALID,19.5453,VALID,16,VALID,0,
2012-04-21, 03:33:04,VALID,916.282,VALID,0,VALID,95.8721,VALID,0,VALID,19.5648,VALID,16,VALID,0,
2012-04-21, 03:34:04,VALID,916.262,VALID,0,VALID,95.9026,VALID,0,VALID,19.5648,VALID,16,VALID,0,
2012-04-21, 03:35:04,VALID,916.239,VALID,0,VALID,95.9178,VALID,0,VALID,19.5843,VALID,16,VALID,0,
2012-04-21, 03:36:04,VALID,916.229,VALID,0,VALID,95.895,VALID,0,VALID,19.5648,VALID,16,VALID,0,
2012-04-21, 03:37:04,VALID,916.204,VALID,0,VALID,95.9254,VALID,0,VALID,19.5648,VALID,16,VALID,0,
2012-04-21, 03:38:04,VALID,916.225,VALID,0,VALID,95.9407,VALID,0,VALID,19.5648,VALID,16,VALID,0.00351562,
2012-04-21, 03:39:04,VALID,916.237,VALID,0,VALID,95.9712,VALID,0,VALID,19.5843,VALID,16,VALID,0.0542969,
2012-04-21, 03:40:04,VALID,916.189,VALID,0,VALID,96.0322,VALID,0,VALID,19.5648,VALID,16,VALID,0,
2012-04-21, 03:41:04,VALID,916.192,VALID,0,VALID,96.055,VALID,0,VALID,19.5648,VALID,16,VALID,0,
2012-04-21, 03:42:04,VALID,916.187,VALID,0,VALID,96.0855,VALID,0,VALID,19.5648,VALID,16,VALID,0,
2012-04-21, 03:43:04,VALID,916.177,VALID,0,VALID,96.1236,VALID,0,VALID,19.5648,VALID,16,VALID,0.384766,
2012-04-21, 03:44:04,VALID,916.167,VALID,0,VALID,96.1313,VALID,0,VALID,19.5243,VALID,16,VALID,0.0714844,
2012-04-21, 03:45:04,VALID,916.139,VALID,0,VALID,96.1465,VALID,0,VALID,19.5243,VALID,16,VALID,0,
2012-04-21, 03:46:04,VALID,916.13,VALID,0,VALID,96.2075,VALID,0,VALID,19.5453,VALID,16,VALID,0,
2012-04-21, 03:47:04,VALID,916.141,VALID,0,VALID,96.2304,VALID,0,VALID,19.5258,VALID,16,VALID,0,